Details From SBPA - Salgado Filho
To SBFL - Hercillo Luz
Flight Number -
Tags generated
Created
Modified
Stats Distance 197 nm / 364 km
Max Altitude 21,400 ft / 6,523 m
Waypoints 3
Social Downloads 1
Likes 0
Share VATSIM

Download

Looking for another format? Having issues loading an existing format? Contact us
Advertisement - Login to hide

Notes

Basic altitude profile: - Ascent Rate: 2500ft/min - Ascent Speed: 250kts - Cruise Altitude: 35000ft - Cruise Speed: 420kts - Descent Rate: 1500ft/min - Descent Speed: 250kts Options: - Use NATs: yes - Use PACOTS: yes - Use low airways: no - Use high airways: yes

Route

SBPA BELIC SBFL

ID Type Via Altitude Latitude Longitude Leg Dist Tot Dist Heading (true) Name
O SBPA APT - 0 ft / 0 m -29.99443˚ -51.17143˚ - 0 nm - Salgado Filho
BELIC FIX - 21,400 ft / 6,523 m -28.91783˚ -49.79683˚ 96 nm 96 nm 48° / 48° -
O SBFL APT - 0 ft / 0 m -27.67049˚ -48.54718˚ 99 nm 196 nm 42° / 41° Hercillo Luz

Altitude Profile

Advertisement - Login to hide

Weather


0- 5 10 15 20 25 30 35+ Temperature / ° C

Clouds and Precipitation
Forecast for 2017-12-17 12:00 UTC. Updated an hour ago

Ground ~20,000 ft ~40,000 ft Winds

SBPA

Details ICAO SBPA (POA)
Name Salgado Filho
Region Brazil
Timezone America/Sao_Paulo (UTC-2.0)
Stats Elevation 11 ft / 3 m (AMSL)
Location -29.994428° -51.171426°
Runways 1
Magnetic Variation 16.879° W

METAR

SBPA 170800Z 08003KT CAVOK 23/22 Q1004

Decode

TAF

Not found

Departure Runways

ID Width Length Bearing (true) Bearing (mag) Surface Threshold Offset Overrun Length
11 138 ft / 42 m 7,487 ft / 2,282 m 91.60° 108.48° Asphalt 0 ft / 0 m 230 ft / 70 m
29 138 ft / 42 m 7,487 ft / 2,282 m 271.59° 288.47° Asphalt 0 ft / 0 m 197 ft / 60 m

SBFL

Details ICAO SBFL (FLN)
Name Hercillo Luz
Region Brazil
Timezone America/Sao_Paulo (UTC-2.0)
Stats Elevation 19 ft / 6 m (AMSL)
Location -27.670487° -48.547180°
Runways 2
Magnetic Variation 19.321° W

METAR

SBFL 170800Z 35009KT 9999 FEW026 24/21 Q1009

Decode

TAF

TAF SBFL 170300Z 1706/1806 36012G25KT CAVOK TN24/1709Z TX30/1717Z PROB30 1718/1722 9999 SCT030 FEW035TCU PROB30 1722/1802 16002KT TS FEW035CB BECMG 1802/1806 18015G25KT 6000 TSRA FEW035CB RMK PDN

Decode

Destination Runways

ID Width Length Bearing (true) Bearing (mag) Surface Threshold Offset Overrun Length
03 148 ft / 45 m 4,939 ft / 1,505 m 11.55° 30.87° Concrete 0 ft / 0 m 0 ft / 0 m
14 148 ft / 45 m 7,543 ft / 2,299 m 121.30° 140.62° Asphalt 720 ft / 219 m 0 ft / 0 m
21 148 ft / 45 m 4,939 ft / 1,505 m 191.55° 210.87° Concrete 0 ft / 0 m 0 ft / 0 m
32 148 ft / 45 m 7,543 ft / 2,299 m 301.29° 320.61° Asphalt 0 ft / 0 m 200 ft / 61 m

Approach Navaids

Runway Type Ident Frequency Range Bearing (true) Bearing (mag) Slope Elevation
14 Localiser IFL 110.30 MHz 18 nm / 33 km 121.67° 140.99° - 19 ft / 6 m (AMSL)
14 Glidescope IFL 110.30 MHz 10 nm / 19 km 121.29° 140.61° 3.00° 19 ft / 6 m (AMSL)

Popular Alternatives